Regional Weather Roundup
Issued by NWS Charleston, WV

Home | Current Version | Previous Version | Text Only | Print | Product List | Glossary Off
Versions: 1 2 3 4 5 6 7 8 9 10 11 12 13 14 15 16 17 18 19 20 21 22 23 24 25 26 27 28 29 30 31 32 33 34 35 36 37 38 39 40 41 42 43 44 45 46 47 48 49 50

899
ASUS41 KRLX 201610
RWRRLX
West Virginia Regional Weather Roundup
National Weather Service Charleston WV
Issued by National Weather Service Pittsburgh PA
1100 AM EST MON NOV 20 2017

Note: "fair" indicates few or no clouds below 12,000 feet with no
significant weather and/or obstructions to visibility.

WVZ003-201700-
Northern Panhandle of West Virginia

CITY           SKY/WX    TMP DP  RH WIND       PRES   REMARKS
WHEELING       SUNNY     33  21  61 SW14G22   30.18F WCI  23
$$

WVZ009-201700-
Northwest West Virginia

CITY           SKY/WX    TMP DP  RH WIND       PRES   REMARKS
PARKERSBURG    SUNNY     36  24  62 W9        30.28S
$$

WVZ006-201700-
Western West Virginia

CITY           SKY/WX    TMP DP  RH WIND       PRES   REMARKS
HUNTINGTON     SUNNY     38  24  57 VRB5      30.27F
$$

WVZ015-201700-
West Central West Virginia

CITY           SKY/WX    TMP DP  RH WIND       PRES   REMARKS
CHARLESTON     SUNNY     38  22  52 SW9       30.27S
$$

WVZ031-201700-
North Central West Virginia

CITY           SKY/WX    TMP DP  RH WIND       PRES   REMARKS
CLARKSBURG     SUNNY     37  25  61 SW10      30.22F
MORGANTOWN     MOSUNNY   35  22  58 SW9       30.21F WCI  28
$$

WVZ035-042-201700-
South Central West Virginia

CITY           SKY/WX    TMP DP  RH WIND       PRES   REMARKS
BECKLEY        SUNNY     34  21  59 SW9       30.22R WCI  27
BLUEFIELD      SUNNY     33  20  58 W8        30.22R WCI  26
$$

WVZ045-201700-
Greenbrier Valley of West Virginia

CITY           SKY/WX    TMP DP  RH WIND       PRES   REMARKS
LEWISBURG      SUNNY     36  20  51 W7        30.22R
$$

WVZ047-201700-
Northern Mountains of West Virginia

CITY           SKY/WX    TMP DP  RH WIND       PRES   REMARKS
ELKINS         SUNNY     36  17  46 W7        30.19R
$$

WVZ052-201700-
Eastern Panhandle of West Virginia

CITY           SKY/WX    TMP DP  RH WIND       PRES   REMARKS
MARTINSBURG    SUNNY     42  20  41 SW8       30.18S
PETERSBURG     SUNNY     42  19  40 SW9       30.19S
$$




USA.gov is the U.S. government's official web portal to all federal, state and local government web resources and services.